Regional Weather Roundup
Issued by NWS Kansas City/Pleasant Hill, MO

Home | Current Version | Previous Version | Text Only | Print | Product List | Glossary On
Versions: 1 2 3 4 5 6 7 8 9 10 11 12 13 14 15 16 17 18 19 20 21 22 23 24 25 26 27 28
000
ASUS43 KEAX 111310
RWREAX

WEATHER ROUNDUP FOR EASTERN KANSAS AND NORTHWEST MISSOURI
NATIONAL WEATHER SERVICE KANSAS CITY/PLEASANT HILL MO
700 AM CST MON DEC 11 2017

KSZ040-057-103>105-MOZ028-029-037-043-111400-
...KANSAS CITY METROPOLITAN AREA...

CITY           SKY/WX    TMP DP  RH WIND       PRES   REMARKS
K.C. INTL      PTCLDY    36  19  50 SW10      29.95S WCI  28
K.C. DOWNTOWN  PTCLDY    36  21  54 SW7       29.96F WCI  30
LEES SUMMIT    CLEAR     41  20  43 W10       29.96F WCI  35
OLATHE - IXD   CLOUDY    38  20  48 SW9       29.99F WCI  31
OLATHE - OJC   PTCLDY    39  19  44 W9        29.98F WCI  33
LAWRENCE       PTCLDY    26  19  74 W9        29.99F WCI  17

$$

MOZ001>008-011>017-020>025-030>033-038>040-044>046-053-054-111400-
...NORTHERN AND CENTRAL MISSOURI...

CITY           SKY/WX    TMP DP  RH WIND       PRES   REMARKS
ST. JOSEPH     CLOUDY    31  21  66 S5        29.95R WCI  26
MOSBY          CLOUDY    27  21  80 CALM      29.95S
WARRENSBURG    CLEAR     34  21  60 S7        29.96F WCI  28
WHITEMAN AFB   CLEAR     37  21  51 SW12      29.91F WCI  29
CLINTON        CLEAR     36  23  60 SW10      30.00F WCI  28
SEDALIA        CLEAR     39  24  55 SW16      29.96F WCI  30
WARSAW         NOT AVBL
CHILLICOTHE      N/A     39  23  52 SW6       29.91R WCI  35
KIRKSVILLE     CLOUDY    35  27  72 SW8       29.85F WCI  29

$$

MOZ041-047>049-056>058-063>065-088>090-097-111400-
...EASTERN AND SOUTHERN MISSOURI...

CITY           SKY/WX    TMP DP  RH WIND       PRES   REMARKS
ST. LOUIS INTL MOCLDY    36  26  67 S6        30.00F WCI  31
SPIRIT OF STL  MOCLDY    26  24  92 CALM      29.99F
COLUMBIA       PTCLDY    32  25  75 S9        29.94F WCI  24
JEFFERSON CITY CLEAR     36  24  62 E6        29.97F WCI  31
ROLLA          CLEAR     38  23  55 S14       29.99F WCI  30
OSAGE BEACH    CLEAR     32  23  69 S6        30.01F WCI  26
SPRINGFIELD    CLEAR     38  23  55 SW12      30.05S WCI  30
BRANSON        CLEAR     46  19  34 SW13      30.10S
JOPLIN         CLEAR     43  23  45 SW12      30.08F
WEST PLAINS    CLEAR     35  23  61 W8        30.09S WCI  29

$$

IAZ060-094-KSZ022-034>040-054-083-096-NEZ052-066-093-111400-
...KANSAS...SOUTHEAST NEBRASKA AND IOWA...

CITY           SKY/WX    TMP DP  RH WIND       PRES   REMARKS
TOPEKA         CLOUDY    34  20  56 W8        30.00F WCI  27
MANHATTAN      CLOUDY    32  16  51 SW3       30.07R
EMPORIA        CLEAR     38  13  35 W8        30.06R WCI  32
CHANUTE        CLEAR     39  19  44 SW8       30.08R WCI  33
WICHITA        CLEAR     40  13  33 NW9       30.11F WCI  34
OMAHA          PTCLDY    44  17  33 W17G23    29.91R
LINCOLN        CLOUDY    45  16  31 W16G25    29.98F
FALLS CITY     CLOUDY    37  16  42 W14       29.95R WCI  28
LAMONI         PTCLDY    36  20  52 W15       29.83F WCI  27
DES MOINES     CLOUDY    33  24  69 SW8       29.80F WCI  26

$$





USA.gov is the U.S. government's official web portal to all federal, state and local government web resources and services.